sat.trackr.live / text

‹ back to catalog

STARLINK-3956

NORAD 52560 · 2022-051AD

PAYLOAD ACTIVE UNKNOWN

§ Identity

Operator
Country
US
Launch date
2022-05-13
Launch site
AFWTR
Launch vehicle
Mass (kg)
RCS (m²)

Purposes: comms

External: N2YO · Heavens-Above · Gunter

§ Orbital elements

Epoch: 2026-05-25T03:44:15.110016Z

Period
95.44 min
Inclination
53.2128°
Eccentricity
0.0001010
Mean motion
15.08839724 rev/d
Perigee alt
539.0 km
Apogee alt
540.4 km
Semi-major
6,917.9 km
B*
-2.1545e-5
RAAN
135.8516°
Arg perigee
75.1527°
Mean anomaly
284.9577°
Rev number
22,312

§ Raw data

STARLINK-39561 52560U 22051AD  26145.15573044 -.00000631  00000+0 -21545-4 0  99972 52560  53.2128 135.8516 0001010  75.1527 284.9577 15.08839724223128

JSON: /api/v1/satellites/52560 · /tle

For live sub-satellite position, see the globe view (requires WebGL).

§ Visibility from observer

Set your observer location to see the next 7 days of passes ≥ 10°. The values pass through the URL so the page stays shareable.

No JS? Fill the form by hand. The geolocation button needs JavaScript.